[[{"header":{"parameterUnit":"m.s-1","parameterCategory":1,"la1":30.2991,"la2":30.254,"lo1":-89.0895,"lo2":-89.0444,"dy":0.0017,"dx":0.0017,"nx":28,"ny":28,"refTime":"2024-02-28T03:00:00:Z","depth":0,"parameterNumber":2,"parameterNumberName":"U-component_of_WINDS"},"data":[0,0,0,0,0,0,0,0,0,0,0,0,0,0,0,0,0,0,0,0,0,0,0,0,0,0,0,0,0,0,0,0,0,0,0,0,0,0,0,0,0,0,0,0,0,0,0,0,0,0,0,0,0,0,0,0,0,0,-0.8546,-0.8546,0,-0.8605,-0.8606,-0.8606,-0.8636,-0.8636,-0.8636,-0.8636,-0.8695,-0.8697,-0.8698,0,0,0,0,0,0,0,0,0,0,0,0,0,-0.8456,-0.8458,-0.8546,-0.8546,-0.8547,-0.8605,-0.8606,-0.8606,-0.8636,-0.8636,-0.8636,-0.8636,-0.8695,-0.8697,-0.8698,0,0,0,0,0,0,0,0,0,0,0,0,0,-0.8503,-0.8458,-0.8545,-0.8569,-0.8572,-0.8605,-0.8606,-0.8607,-0.8636,-0.8636,-0.8636,-0.8636,-0.8694,-0.8696,-0.8699,-0.8712,0,0,-0.8706,-0.8707,0,0,0,0,0,0,0,0,-0.85,-0.8506,-0.8565,-0.8567,-0.8571,-0.8613,-0.8596,-0.8642,-0.8636,-0.8612,-0.8636,-0.8637,-0.8668,-0.8672,-0.8683,-0.8715,-0.8717,-0.8706,-0.8707,-0.8708,-0.8709,0,0,0,0,0,0,0,-0.8497,-0.8504,-0.8569,-0.8566,-0.8569,-0.8576,-0.8583,-0.8605,-0.8639,-0.8614,-0.8616,-0.8623,-0.8669,-0.8681,-0.8685,-0.8718,-0.8706,-0.8708,-0.8709,-0.871,-0.8764,-0.8764,0,0,0,0,0,0,-0.849,-0.8501,-0.8567,-0.8571,-0.8535,-0.8578,-0.8585,-0.86,-0.8639,-0.8645,-0.8623,-0.8624,-0.8677,-0.8682,-0.8687,-0.8705,-0.8708,-0.871,-0.8712,-0.8764,-0.8764,-0.8764,0,0,0,0,0,0,-0.8488,-0.8496,-0.8565,-0.8537,-0.8546,-0.8579,-0.8595,-0.8601,-0.8612,-0.8645,-0.8651,-0.8629,-0.8677,-0.8684,-0.8706,-0.8708,-0.8711,-0.8714,-0.8764,-0.8764,-0.8764,-0.8742,0,0,0,0,0,0,-0.8486,-0.8495,-0.8501,-0.8537,-0.8547,-0.8583,-0.8595,-0.8602,-0.8616,-0.8619,-0.8652,-0.8658,-0.8678,-0.8702,-0.8708,-0.8711,-0.8715,-0.8763,-0.8764,-0.8764,-0.8743,-0.8742,-0.874,0,0,0,0,0,-0.8482,-0.8492,-0.8501,-0.8509,-0.8556,-0.8583,-0.8589,-0.8612,-0.8617,-0.8623,-0.8644,-0.8657,-0.8707,-0.8704,-0.8711,-0.8715,-0.8763,-0.8764,-0.8764,-0.8743,-0.8742,-0.874,0,0,0,0,0,0,-0.8456,-0.8497,-0.8508,-0.853,-0.8553,-0.8588,-0.8596,-0.861,-0.8632,-0.8633,-0.866,-0.8667,-0.8687,-0.8703,-0.8699,-0.873,-0.8736,-0.8738,-0.8719,-0.8717,-0.8716,-0.8712,-0.8717,0,0,0,0,0,-0.8452,-0.8472,-0.8507,-0.8523,-0.8534,-0.8563,-0.8576,-0.8592,-0.8616,-0.8626,-0.8649,-0.8672,-0.8693,-0.8706,-0.8727,-0.8745,-0.8753,-0.8751,-0.875,-0.8749,-0.875,-0.8761,-0.876,-0.8764,-0.8764,-0.8764,0,0,-0.8445,-0.8471,-0.8481,-0.8518,-0.8538,-0.8557,-0.8571,-0.8591,-0.8605,-0.8629,-0.8651,-0.8669,-0.8696,-0.8716,-0.8726,-0.873,-0.875,-0.8749,-0.8748,-0.8749,-0.8761,-0.876,-0.876,-0.8764,-0.8764,-0.8764,0,0,-0.8443,-0.8464,-0.848,-0.8499,-0.8529,-0.8548,-0.8552,-0.8586,-0.8598,-0.8621,-0.864,-0.8657,-0.8692,-0.8711,-0.8725,-0.8729,-0.8742,-0.8735,-0.8729,-0.8739,-0.8739,-0.8738,-0.874,-0.874,-0.8736,-0.8736,-0.8736,0,-0.8431,-0.8461,-0.8486,-0.8504,-0.852,-0.8543,-0.8559,-0.8576,-0.8611,-0.8621,-0.8625,-0.867,-0.869,-0.8715,-0.8716,-0.8727,-0.8731,-0.8732,-0.8737,-0.8737,-0.8737,-0.8739,-0.8739,-0.8735,-0.8735,-0.8735,-0.8735,0,-0.8444,-0.8464,-0.8473,-0.8507,-0.8523,-0.854,-0.8567,-0.8581,-0.8595,-0.8613,-0.8636,-0.8661,-0.8688,-0.8695,-0.8708,-0.8721,-0.8723,-0.8732,-0.8739,-0.8735,-0.8737,-0.8738,-0.8733,-0.8734,-0.8734,-0.8734,0,0,-0.8427,-0.8474,-0.8477,-0.8492,-0.8527,-0.8543,-0.856,-0.8587,-0.8598,-0.8621,-0.8636,-0.8665,-0.8674,-0.869,-0.8706,-0.8715,-0.8716,-0.8722,-0.8723,-0.872,-0.8732,-0.8726,-0.8726,-0.8725,-0.8725,-0.8726,-0.873,0,-0.8429,-0.8463,-0.8485,-0.851,-0.8529,-0.8551,-0.8566,-0.8589,-0.8606,-0.8625,-0.8644,-0.8664,-0.8674,-0.8683,-0.8693,-0.8714,-0.8719,-0.8714,-0.8739,-0.874,-0.8732,-0.8727,-0.872,-0.8723,-0.8731,-0.8731,-0.8731,0,-0.8436,-0.8459,-0.8486,-0.8518,-0.8527,-0.854,-0.8566,-0.8584,-0.8609,-0.8622,-0.8639,-0.8656,-0.8675,-0.868,-0.8707,-0.8703,-0.8714,-0.8726,-0.8727,-0.873,-0.8735,-0.873,-0.8725,-0.8725,-0.8733,-0.8733,-0.8732,0,-0.8421,-0.8458,-0.8479,-0.8492,-0.853,-0.8539,-0.8555,-0.8581,-0.8595,-0.8618,-0.8627,-0.8651,-0.8665,-0.8683,-0.8705,-0.8707,-0.8729,-0.8736,-0.874,-0.8739,-0.8743,-0.8743,-0.874,-0.8751,-0.8751,-0.8751,-0.875,0,-0.8421,-0.8437,-0.8473,-0.8485,-0.8503,-0.8529,-0.8545,-0.8563,-0.8586,-0.8602,-0.8622,-0.8637,-0.8666,-0.8684,-0.8701,-0.8721,-0.8726,-0.8736,-0.8741,-0.8735,-0.8733,-0.8743,-0.8743,-0.8751,-0.8751,-0.8751,-0.8751,0,-0.8407,-0.8432,-0.8456,-0.849,-0.8499,-0.8511,-0.854,-0.8553,-0.8572,-0.8592,-0.8598,-0.8627,-0.865,-0.8674,-0.8704,-0.8716,-0.8734,-0.874,-0.8725,-0.8728,-0.873,-0.8729,-0.8733,-0.8735,-0.8744,-0.8744,-0.8744,0,-0.8406,-0.8418,-0.8454,-0.8466,-0.8482,-0.8502,-0.8517,-0.8543,-0.8557,-0.8587,-0.8596,-0.862,-0.8641,-0.8675,-0.8699,-0.8722,-0.8729,-0.8729,-0.8733,-0.8726,-0.8729,-0.8728,-0.873,-0.8728,-0.8727,-0.8727,-0.8727,0,-0.8401,-0.8413,-0.8434,-0.8459,-0.8476,-0.8497,-0.8519,-0.8528,-0.8557,-0.8572,-0.8596,-0.8612,-0.8643,-0.8666,-0.8692,-0.8708,-0.8722,-0.8726,-0.8728,-0.8721,-0.8712,-0.8717,-0.8722,-0.8725,-0.8726,-0.8726,-0.8726,-0.8726,-0.8393,-0.8405,-0.8432,-0.8455,-0.8474,-0.8494,-0.8507,-0.8528,-0.8548,-0.8576,-0.8589,-0.8612,-0.8638,-0.8674,-0.869,-0.8708,-0.8713,-0.8715,-0.8716,-0.8717,-0.8715,-0.8709,-0.8713,-0.8713,-0.8713,-0.8713,-0.8713,0,-0.8389,-0.8408,-0.8428,-0.8458,-0.8476,-0.8488,-0.8513,-0.8526,-0.8547,-0.8569,-0.8589,-0.8616,-0.8638,-0.8664,-0.8688,-0.8698,-0.8705,-0.8703,-0.8703,-0.8706,-0.871,-0.8706,-0.8697,-0.8697,-0.8697,-0.8697,-0.8697,-0.8697,-0.8389,-0.841,-0.8425,-0.8455,-0.8474,-0.8497,-0.851,-0.8528,-0.8546,-0.8575,-0.8594,-0.8611,-0.8635,-0.8661,-0.8682,-0.8689,-0.8697,-0.8693,-0.8702,-0.8705,-0.8706,-0.8707,-0.8704,-0.8695,-0.8695,-0.8697,-0.8697,-0.8697]},{"header":{"parameterUnit":"m.s-1","parameterCategory":1,"la1":30.2991,"la2":30.254,"lo1":-89.0895,"lo2":-89.0444,"dy":0.0017,"dx":0.0017,"nx":28,"ny":28,"refTime":"2024-02-28T03:00:00:Z","depth":0,"parameterNumber":3,"parameterNumberName":"V-component_of_WINDS"},"data":[0,0,0,0,0,0,0,0,0,0,0,0,0,0,0,0,0,0,0,0,0,0,0,0,0,0,0,0,0,0,0,0,0,0,0,0,0,0,0,0,0,0,0,0,0,0,0,0,0,0,0,0,0,0,0,0,0,0,4.7958,4.7958,0,4.7908,4.7907,4.7907,4.7882,4.7882,4.7882,4.7882,4.7825,4.7824,4.7822,0,0,0,0,0,0,0,0,0,0,0,0,0,4.8028,4.8027,4.7958,4.7957,4.7957,4.7908,4.7907,4.7907,4.7882,4.7882,4.7882,4.7882,4.7826,4.7824,4.7822,0,0,0,0,0,0,0,0,0,0,0,0,0,4.799,4.8027,4.7958,4.7939,4.7937,4.7908,4.7907,4.7906,4.7882,4.7882,4.7882,4.7882,4.7827,4.7824,4.7822,4.7807,0,0,4.7815,4.7814,0,0,0,0,0,0,0,0,4.7992,4.7987,4.7942,4.794,4.7938,4.7902,4.7911,4.7873,4.7882,4.7903,4.7882,4.7882,4.785,4.7846,4.7836,4.7805,4.7802,4.7815,4.7813,4.7812,4.7812,0,0,0,0,0,0,0,4.7995,4.7989,4.7938,4.7942,4.7939,4.7931,4.7926,4.7904,4.7877,4.7901,4.7899,4.7894,4.7849,4.7839,4.7835,4.7801,4.7815,4.7813,4.7811,4.7811,4.7755,4.7755,0,0,0,0,0,0,4.8001,4.7991,4.794,4.7937,4.7966,4.793,4.7924,4.7913,4.7877,4.7872,4.7894,4.7893,4.7843,4.7838,4.7833,4.7814,4.7812,4.781,4.7809,4.7755,4.7755,4.7755,0,0,0,0,0,0,4.8003,4.7997,4.7942,4.7964,4.7956,4.7929,4.7917,4.7912,4.7902,4.7872,4.7866,4.7889,4.7842,4.7836,4.7814,4.7811,4.7809,4.7807,4.7755,4.7755,4.7755,4.7775,0,0,0,0,0,0,4.8005,4.7997,4.7993,4.7964,4.7955,4.7926,4.7916,4.7911,4.7899,4.7897,4.7865,4.786,4.7842,4.7818,4.7812,4.7808,4.7805,4.7755,4.7755,4.7755,4.7774,4.7775,4.7776,0,0,0,0,0,4.8007,4.7999,4.7992,4.7986,4.7949,4.7925,4.792,4.7901,4.7898,4.7893,4.7873,4.7861,4.7813,4.7816,4.7809,4.7804,4.7755,4.7755,4.7755,4.7774,4.7775,4.7776,0,0,0,0,0,0,4.8026,4.7995,4.7987,4.7969,4.7951,4.7921,4.7913,4.7903,4.7883,4.7882,4.7858,4.7851,4.7831,4.7815,4.7819,4.7788,4.7783,4.7781,4.78,4.7801,4.7802,4.7806,4.7803,0,0,0,0,0,4.8028,4.8014,4.7986,4.7973,4.7964,4.7941,4.793,4.7917,4.7896,4.7887,4.7866,4.7844,4.7824,4.7811,4.7791,4.7772,4.7765,4.7765,4.7766,4.7767,4.7766,4.7755,4.7755,4.7754,4.7754,4.7754,0,0,4.8032,4.8013,4.8005,4.7976,4.796,4.7945,4.7934,4.7917,4.7905,4.7884,4.7863,4.7847,4.7821,4.7801,4.779,4.7787,4.7765,4.7767,4.7768,4.7766,4.7755,4.7755,4.7755,4.7754,4.7754,4.7754,0,0,4.8031,4.8016,4.8004,4.7988,4.7965,4.7949,4.7947,4.7919,4.7908,4.7887,4.7871,4.7855,4.7821,4.7804,4.779,4.7784,4.7772,4.7778,4.7783,4.7773,4.7773,4.7773,4.7771,4.7771,4.7777,4.7777,4.7777,0,4.8039,4.8016,4.7998,4.7983,4.7971,4.7953,4.794,4.7925,4.7895,4.7887,4.7884,4.7841,4.7822,4.7798,4.7797,4.7787,4.7782,4.7782,4.7775,4.7775,4.7774,4.7772,4.7772,4.7778,4.7778,4.7778,4.7778,0,4.8026,4.8011,4.8003,4.7978,4.7965,4.795,4.7929,4.7918,4.7906,4.7891,4.7869,4.7847,4.7822,4.7815,4.7803,4.7789,4.7788,4.778,4.7774,4.7776,4.7773,4.7772,4.778,4.7779,4.7779,4.7779,0,0,4.8035,4.8001,4.7999,4.7987,4.7961,4.7947,4.7932,4.791,4.7901,4.7881,4.7867,4.7839,4.7833,4.7818,4.7803,4.7794,4.7791,4.7787,4.7786,4.7789,4.7775,4.7781,4.7781,4.7783,4.7783,4.7783,4.7777,0,4.8031,4.8005,4.7989,4.7969,4.7954,4.7938,4.7924,4.7906,4.7891,4.7875,4.7858,4.7839,4.7832,4.7823,4.7813,4.7794,4.7788,4.7794,4.7769,4.7768,4.7777,4.7779,4.7785,4.7781,4.7776,4.7776,4.7776,0,4.8022,4.8006,4.7985,4.7961,4.7954,4.7943,4.7922,4.7907,4.7885,4.7875,4.786,4.7845,4.7827,4.7823,4.7798,4.7802,4.7791,4.778,4.778,4.7776,4.7772,4.7776,4.7779,4.7779,4.7774,4.7774,4.7774,0,4.8032,4.8003,4.7988,4.7978,4.795,4.7942,4.7929,4.7908,4.7896,4.7877,4.7869,4.7847,4.7835,4.7818,4.7798,4.7797,4.7775,4.7769,4.7765,4.7766,4.7761,4.7762,4.7763,4.7754,4.7754,4.7754,4.7754,0,4.8029,4.8017,4.7992,4.7982,4.7968,4.7949,4.7935,4.7921,4.7902,4.7888,4.7872,4.7859,4.7833,4.7817,4.7801,4.7782,4.7777,4.7767,4.7763,4.7769,4.777,4.7761,4.7761,4.7754,4.7754,4.7754,4.7754,0,4.8036,4.8019,4.8001,4.7976,4.797,4.796,4.7938,4.7928,4.7913,4.7895,4.789,4.7866,4.7846,4.7825,4.7796,4.7786,4.7768,4.7762,4.7776,4.7774,4.7772,4.7772,4.7767,4.7765,4.7758,4.7758,4.7758,0,4.8035,4.8026,4.8001,4.7992,4.7981,4.7965,4.7954,4.7935,4.7923,4.7898,4.789,4.787,4.7852,4.7821,4.78,4.7778,4.7772,4.7771,4.7768,4.7775,4.7772,4.7773,4.7772,4.7772,4.7772,4.7773,4.7773,0,4.8036,4.8029,4.8014,4.7996,4.7983,4.7967,4.7951,4.7944,4.7921,4.7909,4.7889,4.7876,4.7849,4.7828,4.7805,4.779,4.7777,4.7774,4.7772,4.7778,4.7787,4.7782,4.7779,4.7774,4.7774,4.7774,4.7774,4.7774,4.804,4.8031,4.8013,4.7996,4.7983,4.7968,4.7957,4.7942,4.7926,4.7904,4.7893,4.7874,4.7852,4.782,4.7806,4.7789,4.7785,4.7782,4.7781,4.7781,4.7783,4.779,4.7785,4.7784,4.7784,4.7784,4.7784,0,4.804,4.8028,4.8013,4.7992,4.7979,4.7971,4.7953,4.7942,4.7926,4.7908,4.7892,4.787,4.785,4.7828,4.7807,4.7798,4.7791,4.7793,4.7793,4.779,4.7787,4.7791,4.7798,4.7798,4.7798,4.7798,4.7798,4.7798,4.8038,4.8024,4.8014,4.7992,4.7979,4.7962,4.7952,4.7939,4.7925,4.7901,4.7886,4.7872,4.7852,4.783,4.7811,4.7805,4.7798,4.7801,4.7793,4.7791,4.779,4.7789,4.7793,4.7799,4.7799,4.7797,4.7797,4.7797]}]]